Time,TemperatureF,DewpointF,PressureIn,WindDirection,WindDirectionDegrees,WindSpeedMPH,WindSpeedGustMPH,Humidity,HourlyPrecipIn,Conditions,Clouds,dailyrainin,SolarRadiationWatts/m^2,SoftwareType,DateUTC
2013-02-17 00:00:00,32.2,9.5,30.04,WNW,292,11.0,13.0,38,0.00,,,0.00,0,WeatherCatV1.13B119,2013-02-17 08:00:00,
2013-02-17 00:05:00,32.2,9.5,30.04,WNW,292,10.0,13.0,38,0.00,,,0.00,0,WeatherCatV1.13B119,2013-02-17 08:05:00,
2013-02-17 00:10:00,32.2,9.5,30.04,WNW,292,11.0,15.0,38,0.00,,,0.00,0,WeatherCatV1.13B119,2013-02-17 08:10:00,
2013-02-17 00:15:00,32.2,9.5,30.04,WNW,292,12.0,16.0,38,0.00,,,0.00,0,WeatherCatV1.13B119,2013-02-17 08:15:00,
2013-02-17 00:20:00,32.2,9.5,30.04,West,270,10.0,15.0,38,0.00,,,0.00,0,WeatherCatV1.13B119,2013-02-17 08:20:00,
2013-02-17 00:25:00,32.2,9.5,30.04,West,270,11.0,15.0,38,0.00,,,0.00,0,WeatherCatV1.13B119,2013-02-17 08:25:00,
2013-02-17 00:30:00,32.2,8.9,30.04,West,270,10.0,13.0,37,0.00,,,0.00,0,WeatherCatV1.13B119,2013-02-17 08:30:00,
2013-02-17 00:35:00,32.2,8.9,30.03,WNW,292,10.0,13.0,37,0.00,,,0.00,0,WeatherCatV1.13B119,2013-02-17 08:35:00,
2013-02-17 00:40:00,32.1,8.8,30.03,WNW,292,8.0,12.0,37,0.00,,,0.00,0,WeatherCatV1.13B119,2013-02-17 08:40:00,
2013-02-17 00:45:00,32.2,8.9,30.02,West,270,9.0,12.0,37,0.00,,,0.00,0,WeatherCatV1.13B119,2013-02-17 08:45:00,
2013-02-17 00:50:00,32.2,8.3,30.02,WNW,292,12.0,16.0,36,0.00,,,0.00,0,WeatherCatV1.13B119,2013-02-17 08:50:00,
2013-02-17 00:55:00,32.5,7.3,30.02,WNW,292,12.0,16.0,34,0.00,,,0.00,0,WeatherCatV1.13B119,2013-02-17 08:55:00,
2013-02-17 01:00:00,33.1,7.8,30.01,WNW,292,12.0,16.0,34,0.00,,,0.00,0,WeatherCatV1.13B119,2013-02-17 09:00:00,
2013-02-17 01:05:00,33.1,7.2,30.01,WNW,292,10.0,13.0,33,0.00,,,0.00,0,WeatherCatV1.13B119,2013-02-17 09:05:00,
2013-02-17 01:10:00,33.2,7.2,30.01,WNW,292,11.0,15.0,33,0.00,,,0.00,0,WeatherCatV1.13B119,2013-02-17 09:10:00,
2013-02-17 01:15:00,33.2,7.2,30.02,WNW,292,12.0,17.0,33,0.00,,,0.00,0,WeatherCatV1.13B119,2013-02-17 09:15:00,
2013-02-17 01:20:00,33.1,7.8,30.02,WNW,292,11.0,14.0,34,0.00,,,0.00,0,WeatherCatV1.13B119,2013-02-17 09:20:00,
2013-02-17 01:25:00,32.9,7.0,30.02,WNW,292,10.0,15.0,33,0.00,,,0.00,0,WeatherCatV1.13B119,2013-02-17 09:25:00,
2013-02-17 01:30:00,32.7,7.5,30.01,West,270,11.0,18.0,34,0.00,,,0.00,0,WeatherCatV1.13B119,2013-02-17 09:30:00,
2013-02-17 01:35:00,32.7,7.5,30.01,West,270,12.0,15.0,34,0.00,,,0.00,0,WeatherCatV1.13B119,2013-02-17 09:35:00,
2013-02-17 01:40:00,32.5,7.3,30.01,WNW,292,10.0,13.0,34,0.00,,,0.00,0,WeatherCatV1.13B119,2013-02-17 09:40:00,
2013-02-17 01:45:00,32.5,7.3,30.01,WNW,292,11.0,16.0,34,0.00,,,0.00,0,WeatherCatV1.13B119,2013-02-17 09:45:00,
2013-02-17 01:50:00,32.4,7.8,30.01,WNW,292,12.0,16.0,35,0.00,,,0.00,0,WeatherCatV1.13B119,2013-02-17 09:50:00,
2013-02-17 01:55:00,32.2,7.7,30.01,West,270,12.0,15.0,35,0.00,,,0.00,0,WeatherCatV1.13B119,2013-02-17 09:55:00,
2013-02-17 02:00:00,32.1,8.2,30.01,WNW,292,12.0,18.0,36,0.00,,,0.00,0,WeatherCatV1.13B119,2013-02-17 10:00:00,
2013-02-17 02:05:00,32.1,7.6,30.00,WNW,292,11.0,15.0,35,0.00,,,0.00,0,WeatherCatV1.13B119,2013-02-17 10:05:00,
2013-02-17 02:10:00,32.1,7.6,30.00,WNW,292,16.0,22.0,35,0.00,,,0.00,0,WeatherCatV1.13B119,2013-02-17 10:10:00,
2013-02-17 02:15:00,32.2,7.0,30.00,WNW,292,15.0,20.0,34,0.00,,,0.00,0,WeatherCatV1.13B119,2013-02-17 10:15:00,
2013-02-17 02:20:00,32.4,6.5,29.99,WNW,292,13.0,23.0,33,0.00,,,0.00,0,WeatherCatV1.13B119,2013-02-17 10:20:00,
2013-02-17 02:25:00,32.4,7.8,29.99,West,270,9.0,14.0,35,0.00,,,0.00,0,WeatherCatV1.13B119,2013-02-17 10:25:00,
2013-02-17 02:30:00,32.1,6.9,29.99,WNW,292,11.0,16.0,34,0.00,,,0.00,0,WeatherCatV1.13B119,2013-02-17 10:30:00,
2013-02-17 02:35:00,31.9,6.8,29.99,West,270,11.0,15.0,34,0.00,,,0.00,0,WeatherCatV1.13B119,2013-02-17 10:35:00,
2013-02-17 02:40:00,31.9,7.4,29.99,WNW,292,9.0,12.0,35,0.00,,,0.00,0,WeatherCatV1.13B119,2013-02-17 10:40:00,
2013-02-17 02:45:00,31.6,7.1,29.99,WNW,292,8.0,12.0,35,0.00,,,0.00,0,WeatherCatV1.13B119,2013-02-17 10:45:00,
2013-02-17 02:50:00,31.5,7.0,29.99,West,270,10.0,13.0,35,0.00,,,0.00,0,WeatherCatV1.13B119,2013-02-17 10:50:00,
2013-02-17 02:55:00,31.5,5.8,29.99,WNW,292,11.0,14.0,33,0.00,,,0.00,0,WeatherCatV1.13B119,2013-02-17 10:55:00,
2013-02-17 03:00:00,31.6,5.8,29.99,WNW,292,11.0,14.0,33,0.00,,,0.00,0,WeatherCatV1.13B119,2013-02-17 11:00:00,
2013-02-17 03:05:00,31.9,4.7,29.98,WNW,292,11.0,15.0,31,0.00,,,0.00,0,WeatherCatV1.13B119,2013-02-17 11:05:00,
2013-02-17 03:10:00,32.2,5.0,29.98,WNW,292,9.0,12.0,31,0.00,,,0.00,0,WeatherCatV1.13B119,2013-02-17 11:10:00,
2013-02-17 03:15:00,32.2,5.0,29.98,West,270,9.0,14.0,31,0.00,,,0.00,0,WeatherCatV1.13B119,2013-02-17 11:15:00,
2013-02-17 03:20:00,32.1,5.6,29.97,WNW,292,6.0,12.0,32,0.00,,,0.00,0,WeatherCatV1.13B119,2013-02-17 11:20:00,
2013-02-17 03:25:00,31.8,6.0,29.97,West,270,7.0,12.0,33,0.00,,,0.00,0,WeatherCatV1.13B119,2013-02-17 11:25:00,
2013-02-17 03:30:00,31.5,5.1,29.97,West,270,8.0,10.0,32,0.00,,,0.00,0,WeatherCatV1.13B119,2013-02-17 11:30:00,
2013-02-17 03:35:00,31.3,4.2,29.98,WNW,292,10.0,14.0,31,0.00,,,0.00,0,WeatherCatV1.13B119,2013-02-17 11:35:00,
2013-02-17 03:40:00,31.5,5.1,29.98,WNW,292,10.0,14.0,32,0.00,,,0.00,0,WeatherCatV1.13B119,2013-02-17 11:40:00,
2013-02-17 03:45:00,31.5,5.1,29.98,WNW,292,10.0,13.0,32,0.00,,,0.00,0,WeatherCatV1.13B119,2013-02-17 11:45:00,
2013-02-17 03:50:00,31.3,5.6,29.96,West,270,9.0,14.0,33,0.00,,,0.00,0,WeatherCatV1.13B119,2013-02-17 11:50:00,
2013-02-17 03:55:00,31.2,5.5,29.96,WNW,292,9.0,13.0,33,0.00,,,0.00,0,WeatherCatV1.13B119,2013-02-17 11:55:00,
2013-02-17 04:00:00,31.0,6.0,29.96,West,270,7.0,12.0,34,0.00,,,0.00,0,WeatherCatV1.13B119,2013-02-17 12:00:00,
2013-02-17 04:05:00,31.0,5.3,29.98,NW,315,9.0,12.0,33,0.00,,,0.00,0,WeatherCatV1.13B119,2013-02-17 12:05:00,
2013-02-17 04:10:00,31.3,6.2,29.98,WNW,292,8.0,12.0,34,0.00,,,0.00,0,WeatherCatV1.13B119,2013-02-17 12:10:00,
2013-02-17 04:15:00,31.3,6.2,29.98,WNW,292,8.0,14.0,34,0.00,,,0.00,0,WeatherCatV1.13B119,2013-02-17 12:15:00,
2013-02-17 04:20:00,31.2,6.8,29.99,WNW,292,6.0,10.0,35,0.00,,,0.00,0,WeatherCatV1.13B119,2013-02-17 12:20:00,
2013-02-17 04:25:00,31.0,6.6,29.99,WNW,292,9.0,12.0,35,0.00,,,0.00,0,WeatherCatV1.13B119,2013-02-17 12:25:00,
2013-02-17 04:30:00,30.9,7.1,29.99,WSW,248,8.0,14.0,36,0.00,,,0.00,0,WeatherCatV1.13B119,2013-02-17 12:30:00,
2013-02-17 04:35:00,30.9,7.7,30.00,West,270,7.0,10.0,37,0.00,,,0.00,0,WeatherCatV1.13B119,2013-02-17 12:35:00,
2013-02-17 04:40:00,30.6,8.0,30.00,WNW,292,5.0,11.0,38,0.00,,,0.00,0,WeatherCatV1.13B119,2013-02-17 12:40:00,
2013-02-17 04:45:00,30.3,7.2,30.00,West,270,5.0,11.0,37,0.00,,,0.00,0,WeatherCatV1.13B119,2013-02-17 12:45:00,
2013-02-17 04:50:00,30.1,7.0,29.99,West,270,6.0,11.0,37,0.00,,,0.00,0,WeatherCatV1.13B119,2013-02-17 12:50:00,
2013-02-17 04:55:00,30.3,6.6,29.99,West,270,7.0,10.0,36,0.00,,,0.00,0,WeatherCatV1.13B119,2013-02-17 12:55:00,
2013-02-17 05:00:00,30.3,7.8,29.99,WNW,292,8.0,10.0,38,0.00,,,0.00,0,WeatherCatV1.13B119,2013-02-17 13:00:00,
2013-02-17 05:05:00,30.1,7.0,29.99,West,270,7.0,11.0,37,0.00,,,0.00,0,WeatherCatV1.13B119,2013-02-17 13:05:00,
2013-02-17 05:10:00,30.1,6.4,29.99,WSW,248,6.0,9.0,36,0.00,,,0.00,0,WeatherCatV1.13B119,2013-02-17 13:10:00,
2013-02-17 05:15:00,30.3,6.6,30.02,West,270,7.0,11.0,36,0.00,,,0.00,0,WeatherCatV1.13B119,2013-02-17 13:15:00,
2013-02-17 05:20:00,30.3,6.6,30.02,West,270,8.0,12.0,36,0.00,,,0.00,0,WeatherCatV1.13B119,2013-02-17 13:20:00,
2013-02-17 05:25:00,30.3,7.2,30.02,West,270,6.0,9.0,37,0.00,,,0.00,0,WeatherCatV1.13B119,2013-02-17 13:25:00,
2013-02-17 05:30:00,30.3,7.2,30.03,West,270,6.0,9.0,37,0.00,,,0.00,0,WeatherCatV1.13B119,2013-02-17 13:30:00,
2013-02-17 05:35:00,30.1,7.6,30.03,WNW,292,5.0,8.0,38,0.00,,,0.00,0,WeatherCatV1.13B119,2013-02-17 13:35:00,
2013-02-17 05:40:00,30.0,7.5,30.03,WNW,292,6.0,12.0,38,0.00,,,0.00,0,WeatherCatV1.13B119,2013-02-17 13:40:00,
2013-02-17 05:45:00,30.0,7.5,30.03,WNW,292,5.0,9.0,38,0.00,,,0.00,0,WeatherCatV1.13B119,2013-02-17 13:45:00,
2013-02-17 05:50:00,29.7,8.4,30.03,West,270,6.0,8.0,40,0.00,,,0.00,0,WeatherCatV1.13B119,2013-02-17 13:50:00,
2013-02-17 05:55:00,29.5,8.2,30.03,WNW,292,7.0,12.0,40,0.00,,,0.00,0,WeatherCatV1.13B119,2013-02-17 13:55:00,
2013-02-17 06:00:00,29.5,7.6,30.03,WNW,292,11.0,15.0,39,0.00,,,0.00,0,WeatherCatV1.13B119,2013-02-17 14:00:00,
2013-02-17 06:05:00,29.8,7.9,30.03,WNW,292,8.0,10.0,39,0.00,,,0.00,0,WeatherCatV1.13B119,2013-02-17 14:05:00,
2013-02-17 06:10:00,30.0,7.5,30.03,West,270,10.0,16.0,38,0.00,,,0.00,0,WeatherCatV1.13B119,2013-02-17 14:10:00,
2013-02-17 06:15:00,30.1,8.2,30.03,WNW,292,9.0,15.0,39,0.00,,,0.00,0,WeatherCatV1.13B119,2013-02-17 14:15:00,
2013-02-17 06:20:00,30.1,7.6,30.03,WNW,292,7.0,9.0,38,0.00,,,0.00,0,WeatherCatV1.13B119,2013-02-17 14:20:00,
2013-02-17 06:25:00,30.1,8.2,30.03,WNW,292,6.0,10.0,39,0.00,,,0.00,0,WeatherCatV1.13B119,2013-02-17 14:25:00,
2013-02-17 06:30:00,30.0,8.1,30.03,WNW,292,7.0,10.0,39,0.00,,,0.00,0,WeatherCatV1.13B119,2013-02-17 14:30:00,
2013-02-17 06:35:00,29.8,7.9,30.03,WNW,292,7.0,11.0,39,0.00,,,0.00,0,WeatherCatV1.13B119,2013-02-17 14:35:00,
2013-02-17 06:40:00,29.7,8.4,30.03,WNW,292,5.0,7.0,40,0.00,,,0.00,0,WeatherCatV1.13B119,2013-02-17 14:40:00,
2013-02-17 06:45:00,29.5,8.2,30.03,WNW,292,5.0,9.0,40,0.00,,,0.00,0,WeatherCatV1.13B119,2013-02-17 14:45:00,
2013-02-17 06:50:00,29.5,8.2,30.03,WNW,292,6.0,10.0,40,0.00,,,0.00,5,WeatherCatV1.13B119,2013-02-17 14:50:00,
2013-02-17 06:55:00,29.5,8.7,30.03,WNW,292,6.0,9.0,41,0.00,,,0.00,7,WeatherCatV1.13B119,2013-02-17 14:55:00,
2013-02-17 07:00:00,29.7,8.9,30.03,NW,315,5.0,10.0,41,0.00,,,0.00,11,WeatherCatV1.13B119,2013-02-17 15:00:00,
2013-02-17 07:05:00,29.8,8.5,30.04,WNW,292,4.0,6.0,40,0.00,,,0.00,12,WeatherCatV1.13B119,2013-02-17 15:05:00,
2013-02-17 07:10:00,30.0,8.6,30.04,WNW,292,4.0,6.0,40,0.00,,,0.00,16,WeatherCatV1.13B119,2013-02-17 15:10:00,
2013-02-17 07:15:00,30.1,8.2,30.04,NW,315,4.0,5.0,39,0.00,,,0.00,21,WeatherCatV1.13B119,2013-02-17 15:15:00,
2013-02-17 07:20:00,30.1,8.7,30.06,NW,315,4.0,5.0,40,0.00,,,0.00,30,WeatherCatV1.13B119,2013-02-17 15:20:00,
2013-02-17 07:25:00,30.3,9.5,30.06,WNW,292,7.0,11.0,41,0.00,,,0.00,35,WeatherCatV1.13B119,2013-02-17 15:25:00,
2013-02-17 07:30:00,30.4,9.6,30.06,WNW,292,7.0,10.0,41,0.00,,,0.00,53,WeatherCatV1.13B119,2013-02-17 15:30:00,
2013-02-17 07:35:00,30.6,9.7,30.06,WNW,292,3.0,6.0,41,0.00,,,0.00,66,WeatherCatV1.13B119,2013-02-17 15:35:00,
2013-02-17 07:40:00,30.6,9.2,30.06,WNW,292,5.0,8.0,40,0.00,,,0.00,79,WeatherCatV1.13B119,2013-02-17 15:40:00,
2013-02-17 07:45:00,30.7,9.3,30.06,WNW,292,5.0,7.0,40,0.00,,,0.00,97,WeatherCatV1.13B119,2013-02-17 15:45:00,
2013-02-17 07:50:00,30.9,9.4,30.04,WNW,292,5.0,7.0,40,0.00,,,0.00,113,WeatherCatV1.13B119,2013-02-17 15:50:00,
2013-02-17 07:55:00,31.0,9.5,30.04,NW,315,5.0,6.0,40,0.00,,,0.00,128,WeatherCatV1.13B119,2013-02-17 15:55:00,
2013-02-17 08:00:00,31.0,10.1,30.04,NW,315,2.0,4.0,41,0.00,,,0.00,142,WeatherCatV1.13B119,2013-02-17 16:00:00,
2013-02-17 08:05:00,31.2,9.7,30.04,WNW,292,8.0,11.0,40,0.00,,,0.00,157,WeatherCatV1.13B119,2013-02-17 16:05:00,
2013-02-17 08:10:00,31.3,9.8,30.04,NW,315,7.0,10.0,40,0.00,,,0.00,169,WeatherCatV1.13B119,2013-02-17 16:10:00,
2013-02-17 08:15:00,31.6,10.1,30.04,WNW,292,7.0,9.0,40,0.00,,,0.00,185,WeatherCatV1.13B119,2013-02-17 16:15:00,
2013-02-17 08:20:00,31.8,9.7,30.04,NW,315,5.0,7.0,39,0.00,,,0.00,200,WeatherCatV1.13B119,2013-02-17 16:20:00,
2013-02-17 08:25:00,31.9,10.3,30.04,NW,315,9.0,12.0,40,0.00,,,0.00,216,WeatherCatV1.13B119,2013-02-17 16:25:00,
2013-02-17 08:30:00,32.2,10.1,30.04,WNW,292,7.0,11.0,39,0.00,,,0.00,234,WeatherCatV1.13B119,2013-02-17 16:30:00,
2013-02-17 08:35:00,32.4,9.7,30.05,WNW,292,9.0,13.0,38,0.00,,,0.00,248,WeatherCatV1.13B119,2013-02-17 16:35:00,
2013-02-17 08:40:00,32.5,10.3,30.05,WNW,292,6.0,7.0,39,0.00,,,0.00,262,WeatherCatV1.13B119,2013-02-17 16:40:00,
2013-02-17 08:45:00,32.5,10.3,30.05,NW,315,9.0,12.0,39,0.00,,,0.00,278,WeatherCatV1.13B119,2013-02-17 16:45:00,
2013-02-17 08:50:00,32.7,10.5,30.03,West,270,3.0,4.0,39,0.00,,,0.00,294,WeatherCatV1.13B119,2013-02-17 16:50:00,
2013-02-17 08:55:00,32.8,10.6,30.03,WNW,292,4.0,5.0,39,0.00,,,0.00,309,WeatherCatV1.13B119,2013-02-17 16:55:00,
2013-02-17 09:00:00,32.9,10.7,30.03,WNW,292,4.0,5.0,39,0.00,,,0.00,325,WeatherCatV1.13B119,2013-02-17 17:00:00,
2013-02-17 09:05:00,33.1,10.3,30.04,WNW,292,3.0,5.0,38,0.00,,,0.00,341,WeatherCatV1.13B119,2013-02-17 17:05:00,
2013-02-17 09:10:00,33.2,9.8,30.04,West,270,6.0,9.0,37,0.00,,,0.00,355,WeatherCatV1.13B119,2013-02-17 17:10:00,
2013-02-17 09:15:00,33.5,8.8,30.04,WNW,292,5.0,7.0,35,0.00,,,0.00,369,WeatherCatV1.13B119,2013-02-17 17:15:00,
2013-02-17 09:20:00,33.8,9.1,30.05,WNW,292,6.0,10.0,35,0.00,,,0.00,385,WeatherCatV1.13B119,2013-02-17 17:20:00,
2013-02-17 09:25:00,34.0,9.3,30.05,WNW,292,3.0,5.0,35,0.00,,,0.00,397,WeatherCatV1.13B119,2013-02-17 17:25:00,
2013-02-17 09:30:00,34.3,10.8,30.05,NW,315,5.0,9.0,37,0.00,,,0.00,417,WeatherCatV1.13B119,2013-02-17 17:30:00,
2013-02-17 09:35:00,34.4,9.0,30.05,NW,315,4.0,7.0,34,0.00,,,0.00,431,WeatherCatV1.13B119,2013-02-17 17:35:00,
2013-02-17 09:40:00,34.6,10.4,30.05,WNW,292,5.0,7.0,36,0.00,,,0.00,445,WeatherCatV1.13B119,2013-02-17 17:40:00,
2013-02-17 09:45:00,34.7,9.9,30.04,WNW,292,5.0,9.0,35,0.00,,,0.00,457,WeatherCatV1.13B119,2013-02-17 17:45:00,
2013-02-17 09:50:00,34.9,10.1,30.04,NNW,338,5.0,10.0,35,0.00,,,0.00,468,WeatherCatV1.13B119,2013-02-17 17:50:00,
2013-02-17 09:55:00,35.0,10.1,30.04,West,270,5.0,10.0,35,0.00,,,0.00,478,WeatherCatV1.13B119,2013-02-17 17:55:00,
2013-02-17 10:00:00,35.2,10.3,30.04,NW,315,7.0,11.0,35,0.00,,,0.00,490,WeatherCatV1.13B119,2013-02-17 18:00:00,
2013-02-17 10:05:00,35.3,10.4,30.05,NW,315,3.0,7.0,35,0.00,,,0.00,501,WeatherCatV1.13B119,2013-02-17 18:05:00,
2013-02-17 10:10:00,35.6,9.4,30.05,WNW,292,8.0,11.0,33,0.00,,,0.00,513,WeatherCatV1.13B119,2013-02-17 18:10:00,
2013-02-17 10:15:00,35.6,10.0,30.05,WNW,292,7.0,10.0,34,0.00,,,0.00,524,WeatherCatV1.13B119,2013-02-17 18:15:00,
2013-02-17 10:20:00,35.8,10.2,30.05,NNW,338,0.0,1.0,34,0.00,,,0.00,533,WeatherCatV1.13B119,2013-02-17 18:20:00,
2013-02-17 10:25:00,35.9,9.6,30.05,WNW,292,3.0,4.0,33,0.00,,,0.00,546,WeatherCatV1.13B119,2013-02-17 18:25:00,
2013-02-17 10:30:00,36.3,10.0,30.05,NW,315,1.0,5.0,33,0.00,,,0.00,557,WeatherCatV1.13B119,2013-02-17 18:30:00,
2013-02-17 10:35:00,36.8,9.0,30.05,WNW,292,7.0,11.0,31,0.00,,,0.00,566,WeatherCatV1.13B119,2013-02-17 18:35:00,
2013-02-17 10:40:00,36.9,6.1,30.05,NW,315,7.0,12.0,27,0.00,,,0.00,575,WeatherCatV1.13B119,2013-02-17 18:40:00,
2013-02-17 10:45:00,36.9,6.9,30.05,WNW,292,7.0,10.0,28,0.00,,,0.00,585,WeatherCatV1.13B119,2013-02-17 18:45:00,
2013-02-17 10:50:00,37.0,7.0,30.05,WNW,292,9.0,12.0,28,0.00,,,0.00,594,WeatherCatV1.13B119,2013-02-17 18:50:00,
2013-02-17 10:55:00,37.0,7.0,30.05,NW,315,4.0,6.0,28,0.00,,,0.00,603,WeatherCatV1.13B119,2013-02-17 18:55:00,
2013-02-17 11:00:00,37.3,7.2,30.05,NW,315,6.0,9.0,28,0.00,,,0.00,608,WeatherCatV1.13B119,2013-02-17 19:00:00,
2013-02-17 11:05:00,37.6,5.0,30.06,West,270,8.0,12.0,25,0.00,,,0.00,613,WeatherCatV1.13B119,2013-02-17 19:05:00,
2013-02-17 11:10:00,37.6,5.9,30.06,NW,315,3.0,6.0,26,0.00,,,0.00,621,WeatherCatV1.13B119,2013-02-17 19:10:00,
2013-02-17 11:15:00,37.8,5.2,30.06,WNW,292,8.0,10.0,25,0.00,,,0.00,629,WeatherCatV1.13B119,2013-02-17 19:15:00,
2013-02-17 11:20:00,37.8,6.0,30.04,North,0,4.0,9.0,26,0.00,,,0.00,633,WeatherCatV1.13B119,2013-02-17 19:20:00,
2013-02-17 11:25:00,38.2,7.2,30.04,WNW,292,2.0,5.0,27,0.00,,,0.00,643,WeatherCatV1.13B119,2013-02-17 19:25:00,
2013-02-17 11:30:00,38.8,5.1,30.04,WNW,292,6.0,10.0,24,0.00,,,0.00,647,WeatherCatV1.13B119,2013-02-17 19:30:00,
2013-02-17 11:35:00,38.8,5.1,30.04,WNW,292,5.0,8.0,24,0.00,,,0.00,650,WeatherCatV1.13B119,2013-02-17 19:35:00,
2013-02-17 11:40:00,39.1,6.3,30.04,WNW,292,6.0,9.0,25,0.00,,,0.00,656,WeatherCatV1.13B119,2013-02-17 19:40:00,
2013-02-17 11:45:00,39.2,4.6,30.04,NW,315,2.0,4.0,23,0.00,,,0.00,657,WeatherCatV1.13B119,2013-02-17 19:45:00,
2013-02-17 11:50:00,39.5,6.6,30.04,NW,315,4.0,5.0,25,0.00,,,0.00,663,WeatherCatV1.13B119,2013-02-17 19:50:00,
2013-02-17 11:55:00,39.6,4.9,30.04,NW,315,5.0,7.0,23,0.00,,,0.00,664,WeatherCatV1.13B119,2013-02-17 19:55:00,
2013-02-17 12:00:00,39.5,5.7,30.04,West,270,4.0,6.0,24,0.00,,,0.00,668,WeatherCatV1.13B119,2013-02-17 20:00:00,
2013-02-17 12:05:00,39.6,4.9,30.02,NNW,338,5.0,7.0,23,0.00,,,0.00,671,WeatherCatV1.13B119,2013-02-17 20:05:00,
2013-02-17 12:10:00,39.6,4.9,30.02,West,270,5.0,7.0,23,0.00,,,0.00,673,WeatherCatV1.13B119,2013-02-17 20:10:00,
2013-02-17 12:15:00,40.1,5.3,30.02,WSW,248,3.0,7.0,23,0.00,,,0.00,675,WeatherCatV1.13B119,2013-02-17 20:15:00,
2013-02-17 12:20:00,40.2,5.4,30.01,WNW,292,9.0,13.0,23,0.00,,,0.00,677,WeatherCatV1.13B119,2013-02-17 20:20:00,
2013-02-17 12:25:00,40.1,5.3,30.01,WNW,292,9.0,16.0,23,0.00,,,0.00,677,WeatherCatV1.13B119,2013-02-17 20:25:00,
2013-02-17 12:30:00,39.9,6.1,30.00,WNW,292,5.0,7.0,24,0.00,,,0.00,677,WeatherCatV1.13B119,2013-02-17 20:30:00,
2013-02-17 12:35:00,40.2,6.3,30.00,WNW,292,4.0,5.0,24,0.00,,,0.00,679,WeatherCatV1.13B119,2013-02-17 20:35:00,
2013-02-17 12:40:00,40.5,5.6,30.00,WNW,292,7.0,11.0,23,0.00,,,0.00,677,WeatherCatV1.13B119,2013-02-17 20:40:00,
2013-02-17 12:45:00,40.6,5.7,29.98,WNW,292,4.0,7.0,23,0.00,,,0.00,675,WeatherCatV1.13B119,2013-02-17 20:45:00,
2013-02-17 12:50:00,41.1,5.2,29.98,WNW,292,4.0,8.0,22,0.00,,,0.00,673,WeatherCatV1.13B119,2013-02-17 20:50:00,
2013-02-17 12:55:00,41.2,4.3,29.98,WNW,292,6.0,10.0,21,0.00,,,0.00,671,WeatherCatV1.13B119,2013-02-17 20:55:00,
2013-02-17 13:00:00,41.5,4.5,29.97,WNW,292,7.0,13.0,21,0.00,,,0.00,668,WeatherCatV1.13B119,2013-02-17 21:00:00,
2013-02-17 13:05:00,41.3,6.3,29.97,NW,315,3.0,4.0,23,0.00,,,0.00,663,WeatherCatV1.13B119,2013-02-17 21:05:00,
2013-02-17 13:10:00,41.3,6.3,29.97,NNW,338,3.0,9.0,23,0.00,,,0.00,661,WeatherCatV1.13B119,2013-02-17 21:10:00,
2013-02-17 13:15:00,42.1,7.0,29.97,NW,315,4.0,6.0,23,0.00,,,0.00,657,WeatherCatV1.13B119,2013-02-17 21:15:00,
2013-02-17 13:20:00,42.3,5.2,29.97,WNW,292,6.0,9.0,21,0.00,,,0.00,652,WeatherCatV1.13B119,2013-02-17 21:20:00,
2013-02-17 13:25:00,42.6,5.4,29.97,WNW,292,5.0,6.0,21,0.00,,,0.00,647,WeatherCatV1.13B119,2013-02-17 21:25:00,
2013-02-17 13:30:00,42.5,5.4,29.97,NW,315,5.0,10.0,21,0.00,,,0.00,645,WeatherCatV1.13B119,2013-02-17 21:30:00,
2013-02-17 13:35:00,42.2,4.0,29.97,NNW,338,6.0,9.0,20,0.00,,,0.00,636,WeatherCatV1.13B119,2013-02-17 21:35:00,
2013-02-17 13:40:00,42.1,5.0,29.97,WNW,292,4.0,6.0,21,0.00,,,0.00,633,WeatherCatV1.13B119,2013-02-17 21:40:00,
2013-02-17 13:45:00,42.3,5.2,29.97,WNW,292,5.0,7.0,21,0.00,,,0.00,626,WeatherCatV1.13B119,2013-02-17 21:45:00,
2013-02-17 13:50:00,42.5,5.4,29.97,WNW,292,9.0,12.0,21,0.00,,,0.00,620,WeatherCatV1.13B119,2013-02-17 21:50:00,
2013-02-17 13:55:00,42.5,5.4,29.97,WNW,292,1.0,4.0,21,0.00,,,0.00,613,WeatherCatV1.13B119,2013-02-17 21:55:00,
2013-02-17 14:00:00,42.9,6.7,29.97,WNW,292,7.0,13.0,22,0.00,,,0.00,605,WeatherCatV1.13B119,2013-02-17 22:00:00,
2013-02-17 14:05:00,42.9,5.7,29.97,West,270,8.0,11.0,21,0.00,,,0.00,596,WeatherCatV1.13B119,2013-02-17 22:05:00,
2013-02-17 14:10:00,42.9,6.7,29.97,WNW,292,5.0,7.0,22,0.00,,,0.00,587,WeatherCatV1.13B119,2013-02-17 22:10:00,
2013-02-17 14:15:00,42.8,6.6,29.97,West,270,5.0,8.0,22,0.00,,,0.00,578,WeatherCatV1.13B119,2013-02-17 22:15:00,
2013-02-17 14:20:00,42.6,7.4,29.97,NW,315,1.0,3.0,23,0.00,,,0.00,566,WeatherCatV1.13B119,2013-02-17 22:20:00,
2013-02-17 14:25:00,42.6,7.4,29.97,NNW,338,3.0,6.0,23,0.00,,,0.00,557,WeatherCatV1.13B119,2013-02-17 22:25:00,
2013-02-17 14:30:00,42.6,7.4,29.97,WNW,292,6.0,10.0,23,0.00,,,0.00,548,WeatherCatV1.13B119,2013-02-17 22:30:00,
2013-02-17 14:35:00,42.5,8.3,29.97,WNW,292,11.0,15.0,24,0.00,,,0.00,534,WeatherCatV1.13B119,2013-02-17 22:35:00,
2013-02-17 14:40:00,42.3,7.2,29.97,NW,315,8.0,14.0,23,0.00,,,0.00,40,WeatherCatV1.13B119,2013-02-17 22:40:00,
2013-02-17 14:45:00,41.9,7.8,29.97,WNW,292,6.0,10.0,24,0.00,,,0.00,39,WeatherCatV1.13B119,2013-02-17 22:45:00,
2013-02-17 14:50:00,41.8,7.7,29.96,WNW,292,9.0,11.0,24,0.00,,,0.00,40,WeatherCatV1.13B119,2013-02-17 22:50:00,
2013-02-17 14:55:00,41.5,8.3,29.96,North,0,1.0,3.0,25,0.00,,,0.00,39,WeatherCatV1.13B119,2013-02-17 22:55:00,
2013-02-17 15:00:00,41.6,7.5,29.96,WSW,248,7.0,11.0,24,0.00,,,0.00,44,WeatherCatV1.13B119,2013-02-17 23:00:00,
2013-02-17 15:05:00,41.5,7.4,29.96,WNW,292,7.0,10.0,24,0.00,,,0.00,39,WeatherCatV1.13B119,2013-02-17 23:05:00,
2013-02-17 15:10:00,41.5,8.3,29.96,WNW,292,6.0,10.0,25,0.00,,,0.00,56,WeatherCatV1.13B119,2013-02-17 23:10:00,
2013-02-17 15:15:00,41.5,9.2,29.96,WNW,292,4.0,10.0,26,0.00,,,0.00,139,WeatherCatV1.13B119,2013-02-17 23:15:00,
2013-02-17 15:20:00,41.6,9.3,29.98,NW,315,3.0,6.0,26,0.00,,,0.00,46,WeatherCatV1.13B119,2013-02-17 23:20:00,
2013-02-17 15:25:00,41.8,8.6,29.98,NW,315,4.0,7.0,25,0.00,,,0.00,39,WeatherCatV1.13B119,2013-02-17 23:25:00,
2013-02-17 15:30:00,41.9,8.7,29.98,West,270,4.0,8.0,25,0.00,,,0.00,406,WeatherCatV1.13B119,2013-02-17 23:30:00,
2013-02-17 15:35:00,41.9,8.7,29.97,WNW,292,9.0,13.0,25,0.00,,,0.00,360,WeatherCatV1.13B119,2013-02-17 23:35:00,
2013-02-17 15:40:00,41.6,9.3,29.97,WNW,292,6.0,10.0,26,0.00,,,0.00,192,WeatherCatV1.13B119,2013-02-17 23:40:00,
2013-02-17 15:45:00,41.5,8.3,29.98,NW,315,7.0,10.0,25,0.00,,,0.00,63,WeatherCatV1.13B119,2013-02-17 23:45:00,
2013-02-17 15:50:00,41.3,9.0,29.98,WNW,292,6.0,9.0,26,0.00,,,0.00,121,WeatherCatV1.13B119,2013-02-17 23:50:00,
2013-02-17 15:55:00,41.3,9.0,29.98,West,270,6.0,9.0,26,0.00,,,0.00,35,WeatherCatV1.13B119,2013-02-17 23:55:00,
2013-02-17 16:00:00,41.3,9.0,29.98,NW,315,2.0,11.0,26,0.00,,,0.00,40,WeatherCatV1.13B119,2013-02-18 00:00:00,
2013-02-17 16:05:00,41.3,9.0,29.98,WNW,292,3.0,4.0,26,0.00,,,0.00,169,WeatherCatV1.13B119,2013-02-18 00:05:00,
2013-02-17 16:10:00,41.5,9.2,29.98,NW,315,3.0,5.0,26,0.00,,,0.00,229,WeatherCatV1.13B119,2013-02-18 00:10:00,
2013-02-17 16:15:00,41.6,9.3,29.98,WNW,292,1.0,3.0,26,0.00,,,0.00,255,WeatherCatV1.13B119,2013-02-18 00:15:00,
2013-02-17 16:20:00,41.8,9.5,29.98,West,270,5.0,7.0,26,0.00,,,0.00,243,WeatherCatV1.13B119,2013-02-18 00:20:00,
2013-02-17 16:25:00,41.9,9.6,29.98,WNW,292,5.0,6.0,26,0.00,,,0.00,225,WeatherCatV1.13B119,2013-02-18 00:25:00,
2013-02-17 16:30:00,42.1,10.6,29.98,WNW,292,0.0,1.0,27,0.00,,,0.00,211,WeatherCatV1.13B119,2013-02-18 00:30:00,
2013-02-17 16:35:00,42.1,10.6,29.98,NW,315,3.0,5.0,27,0.00,,,0.00,186,WeatherCatV1.13B119,2013-02-18 00:35:00,
2013-02-17 16:40:00,42.2,10.7,29.98,West,270,3.0,6.0,27,0.00,,,0.00,31,WeatherCatV1.13B119,2013-02-18 00:40:00,
2013-02-17 16:45:00,42.1,10.6,29.98,NW,315,2.0,9.0,27,0.00,,,0.00,69,WeatherCatV1.13B119,2013-02-18 00:45:00,
2013-02-17 16:50:00,41.9,13.5,29.98,SSW,202,1.0,3.0,31,0.00,,,0.00,70,WeatherCatV1.13B119,2013-02-18 00:50:00,
2013-02-17 16:55:00,41.6,10.9,29.98,WNW,292,1.0,3.0,28,0.00,,,0.00,42,WeatherCatV1.13B119,2013-02-18 00:55:00,
2013-02-17 17:00:00,41.3,10.7,29.98,WNW,292,1.0,4.0,28,0.00,,,0.00,49,WeatherCatV1.13B119,2013-02-18 01:00:00,
2013-02-17 17:05:00,41.2,11.4,29.99,West,270,2.0,5.0,29,0.00,,,0.00,23,WeatherCatV1.13B119,2013-02-18 01:05:00,
2013-02-17 17:10:00,40.9,10.3,29.99,WNW,292,4.0,7.0,28,0.00,,,0.00,25,WeatherCatV1.13B119,2013-02-18 01:10:00,
2013-02-17 17:15:00,40.6,10.1,29.99,WNW,292,2.0,5.0,28,0.00,,,0.00,25,WeatherCatV1.13B119,2013-02-18 01:15:00,
2013-02-17 17:20:00,40.3,11.4,29.99,WNW,292,1.0,3.0,30,0.00,,,0.00,42,WeatherCatV1.13B119,2013-02-18 01:20:00,
2013-02-17 17:25:00,40.1,11.9,29.99,WSW,248,2.0,3.0,31,0.00,,,0.00,14,WeatherCatV1.13B119,2013-02-18 01:25:00,
2013-02-17 17:30:00,39.6,12.2,29.99,WSW,248,0.0,0.0,32,0.00,,,0.00,18,WeatherCatV1.13B119,2013-02-18 01:30:00,
2013-02-17 17:35:00,39.3,17.0,29.99,WSW,248,0.0,0.0,40,0.00,,,0.00,9,WeatherCatV1.13B119,2013-02-18 01:35:00,
2013-02-17 17:40:00,38.9,13.0,29.99,WSW,248,2.0,3.0,34,0.00,,,0.00,5,WeatherCatV1.13B119,2013-02-18 01:40:00,
2013-02-17 17:45:00,38.3,12.4,29.99,WSW,248,0.0,1.0,34,0.00,,,0.00,0,WeatherCatV1.13B119,2013-02-18 01:45:00,
2013-02-17 17:50:00,38.0,12.8,30.01,WSW,248,1.0,2.0,35,0.00,,,0.00,0,WeatherCatV1.13B119,2013-02-18 01:50:00,
2013-02-17 17:55:00,37.5,13.6,30.01,WSW,248,1.0,3.0,37,0.00,,,0.00,0,WeatherCatV1.13B119,2013-02-18 01:55:00,
2013-02-17 18:00:00,37.0,13.8,30.01,WSW,248,0.0,0.0,38,0.00,,,0.00,0,WeatherCatV1.13B119,2013-02-18 02:00:00,
2013-02-17 18:05:00,36.6,14.0,30.02,WSW,248,0.0,0.0,39,0.00,,,0.00,0,WeatherCatV1.13B119,2013-02-18 02:05:00,
2013-02-17 18:10:00,36.3,14.9,30.02,WSW,248,0.0,2.0,41,0.00,,,0.00,0,WeatherCatV1.13B119,2013-02-18 02:10:00,
2013-02-17 18:15:00,35.9,14.5,30.02,WSW,248,2.0,3.0,41,0.00,,,0.00,0,WeatherCatV1.13B119,2013-02-18 02:15:00,
2013-02-17 18:20:00,35.6,14.8,30.03,WSW,248,1.0,2.0,42,0.00,,,0.00,0,WeatherCatV1.13B119,2013-02-18 02:20:00,
2013-02-17 18:25:00,35.3,15.1,30.03,WSW,248,0.0,0.0,43,0.00,,,0.00,0,WeatherCatV1.13B119,2013-02-18 02:25:00,
2013-02-17 18:30:00,35.3,16.6,30.03,WSW,248,0.0,0.0,46,0.00,,,0.00,0,WeatherCatV1.13B119,2013-02-18 02:30:00,
2013-02-17 18:35:00,35.3,18.1,30.04,WNW,292,0.0,0.0,49,0.00,,,0.00,0,WeatherCatV1.13B119,2013-02-18 02:35:00,
2013-02-17 18:40:00,35.2,18.0,30.04,WNW,292,0.0,0.0,49,0.00,,,0.00,0,WeatherCatV1.13B119,2013-02-18 02:40:00,
2013-02-17 18:45:00,35.0,18.3,30.04,WNW,292,0.0,0.0,50,0.00,,,0.00,0,WeatherCatV1.13B119,2013-02-18 02:45:00,
2013-02-17 18:50:00,34.9,19.1,30.04,WNW,292,0.0,0.0,52,0.00,,,0.00,0,WeatherCatV1.13B119,2013-02-18 02:50:00,
2013-02-17 18:55:00,34.7,18.9,30.04,WNW,292,0.0,0.0,52,0.00,,,0.00,0,WeatherCatV1.13B119,2013-02-18 02:55:00,
2013-02-17 19:00:00,34.4,18.2,30.04,WNW,292,2.0,3.0,51,0.00,,,0.00,0,WeatherCatV1.13B119,2013-02-18 03:00:00,
2013-02-17 19:05:00,34.3,18.5,30.04,WNW,292,0.0,0.0,52,0.00,,,0.00,0,WeatherCatV1.13B119,2013-02-18 03:05:00,
2013-02-17 19:10:00,34.3,19.0,30.04,WNW,292,1.0,2.0,53,0.00,,,0.00,0,WeatherCatV1.13B119,2013-02-18 03:10:00,
2013-02-17 19:15:00,34.1,18.8,30.04,WNW,292,2.0,2.0,53,0.00,,,0.00,0,WeatherCatV1.13B119,2013-02-18 03:15:00,
2013-02-17 19:20:00,33.8,19.4,30.04,South,180,1.0,2.0,55,0.00,,,0.00,0,WeatherCatV1.13B119,2013-02-18 03:20:00,
2013-02-17 19:25:00,32.9,19.8,30.04,ESE,112,1.0,3.0,58,0.00,,,0.00,0,WeatherCatV1.13B119,2013-02-18 03:25:00,
2013-02-17 19:30:00,32.2,19.9,30.04,ESE,112,1.0,3.0,60,0.00,,,0.00,0,WeatherCatV1.13B119,2013-02-18 03:30:00,
2013-02-17 19:35:00,31.3,19.4,30.06,ESE,112,1.0,3.0,61,0.00,,,0.00,0,WeatherCatV1.13B119,2013-02-18 03:35:00,
2013-02-17 19:40:00,31.0,19.5,30.06,ESE,112,2.0,3.0,62,0.00,,,0.00,0,WeatherCatV1.13B119,2013-02-18 03:40:00,
2013-02-17 19:45:00,30.7,19.6,30.06,ESE,112,2.0,4.0,63,0.00,,,0.00,0,WeatherCatV1.13B119,2013-02-18 03:45:00,
2013-02-17 19:50:00,30.3,19.2,30.06,ESE,112,1.0,3.0,63,0.00,,,0.00,0,WeatherCatV1.13B119,2013-02-18 03:50:00,
2013-02-17 19:55:00,30.0,19.3,30.06,East,90,2.0,3.0,64,0.00,,,0.00,0,WeatherCatV1.13B119,2013-02-18 03:55:00,
2013-02-17 20:00:00,29.8,19.5,30.06,East,90,1.0,2.0,65,0.00,,,0.00,0,WeatherCatV1.13B119,2013-02-18 04:00:00,
2013-02-17 20:05:00,29.7,19.0,30.08,ESE,112,1.0,2.0,64,0.00,,,0.00,0,WeatherCatV1.13B119,2013-02-18 04:05:00,
2013-02-17 20:10:00,29.4,19.1,30.08,ESE,112,1.0,3.0,65,0.00,,,0.00,0,WeatherCatV1.13B119,2013-02-18 04:10:00,
2013-02-17 20:15:00,29.1,18.8,30.08,ESE,112,0.0,0.0,65,0.00,,,0.00,0,WeatherCatV1.13B119,2013-02-18 04:15:00,
2013-02-17 20:20:00,29.3,19.0,30.06,East,90,0.0,0.0,65,0.00,,,0.00,0,WeatherCatV1.13B119,2013-02-18 04:20:00,
2013-02-17 20:25:00,29.3,19.0,30.06,East,90,1.0,3.0,65,0.00,,,0.00,0,WeatherCatV1.13B119,2013-02-18 04:25:00,
2013-02-17 20:30:00,29.1,18.8,30.06,East,90,0.0,1.0,65,0.00,,,0.00,0,WeatherCatV1.13B119,2013-02-18 04:30:00,
2013-02-17 20:35:00,29.1,18.8,30.06,ESE,112,0.0,3.0,65,0.00,,,0.00,0,WeatherCatV1.13B119,2013-02-18 04:35:00,
2013-02-17 20:40:00,29.0,18.7,30.06,ENE,68,0.0,2.0,65,0.00,,,0.00,0,WeatherCatV1.13B119,2013-02-18 04:40:00,
2013-02-17 20:45:00,28.8,18.9,30.06,East,90,1.0,4.0,66,0.00,,,0.00,0,WeatherCatV1.13B119,2013-02-18 04:45:00,
2013-02-17 20:50:00,28.8,18.9,30.06,East,90,3.0,4.0,66,0.00,,,0.00,0,WeatherCatV1.13B119,2013-02-18 04:50:00,
2013-02-17 20:55:00,29.1,18.8,30.06,East,90,1.0,3.0,65,0.00,,,0.00,0,WeatherCatV1.13B119,2013-02-18 04:55:00,
2013-02-17 21:00:00,29.3,18.7,30.06,East,90,1.0,4.0,64,0.00,,,0.00,0,WeatherCatV1.13B119,2013-02-18 05:00:00,
2013-02-17 21:05:00,29.4,18.8,30.08,East,90,1.0,3.0,64,0.00,,,0.00,0,WeatherCatV1.13B119,2013-02-18 05:05:00,
2013-02-17 21:10:00,29.3,18.7,30.08,East,90,2.0,4.0,64,0.00,,,0.00,0,WeatherCatV1.13B119,2013-02-18 05:10:00,
2013-02-17 21:15:00,29.1,18.8,30.08,ENE,68,1.0,3.0,65,0.00,,,0.00,0,WeatherCatV1.13B119,2013-02-18 05:15:00,
2013-02-17 21:20:00,29.0,18.7,30.06,East,90,2.0,7.0,65,0.00,,,0.00,0,WeatherCatV1.13B119,2013-02-18 05:20:00,
2013-02-17 21:25:00,29.0,18.7,30.06,ENE,68,2.0,3.0,65,0.00,,,0.00,0,WeatherCatV1.13B119,2013-02-18 05:25:00,
2013-02-17 21:30:00,29.0,18.7,30.06,East,90,0.0,0.0,65,0.00,,,0.00,0,WeatherCatV1.13B119,2013-02-18 05:30:00,
2013-02-17 21:35:00,29.0,18.4,30.06,East,90,1.0,2.0,64,0.00,,,0.00,0,WeatherCatV1.13B119,2013-02-18 05:35:00,
2013-02-17 21:40:00,29.0,18.4,30.06,ENE,68,2.0,5.0,64,0.00,,,0.00,0,WeatherCatV1.13B119,2013-02-18 05:40:00,
2013-02-17 21:45:00,29.0,18.7,30.06,East,90,0.0,3.0,65,0.00,,,0.00,0,WeatherCatV1.13B119,2013-02-18 05:45:00,
2013-02-17 21:50:00,28.7,18.4,30.06,East,90,0.0,1.0,65,0.00,,,0.00,0,WeatherCatV1.13B119,2013-02-18 05:50:00,
2013-02-17 21:55:00,28.2,18.0,30.06,East,90,1.0,4.0,65,0.00,,,0.00,0,WeatherCatV1.13B119,2013-02-18 05:55:00,
2013-02-17 22:00:00,27.9,17.7,30.06,ESE,112,1.0,3.0,65,0.00,,,0.00,0,WeatherCatV1.13B119,2013-02-18 06:00:00,
2013-02-17 22:05:00,27.5,17.3,30.07,ESE,112,1.0,5.0,65,0.00,,,0.00,0,WeatherCatV1.13B119,2013-02-18 06:05:00,
2013-02-17 22:10:00,27.3,17.1,30.07,East,90,1.0,3.0,65,0.00,,,0.00,0,WeatherCatV1.13B119,2013-02-18 06:10:00,
2013-02-17 22:15:00,27.0,16.8,30.07,East,90,2.0,3.0,65,0.00,,,0.00,0,WeatherCatV1.13B119,2013-02-18 06:15:00,
2013-02-17 22:20:00,26.9,16.7,30.06,East,90,2.0,4.0,65,0.00,,,0.00,0,WeatherCatV1.13B119,2013-02-18 06:20:00,
2013-02-17 22:25:00,27.0,16.8,30.06,East,90,1.0,3.0,65,0.00,,,0.00,0,WeatherCatV1.13B119,2013-02-18 06:25:00,
2013-02-17 22:30:00,27.0,16.8,30.06,East,90,2.0,4.0,65,0.00,,,0.00,0,WeatherCatV1.13B119,2013-02-18 06:30:00,
2013-02-17 22:35:00,27.3,17.5,30.06,East,90,1.0,3.0,66,0.00,,,0.00,0,WeatherCatV1.13B119,2013-02-18 06:35:00,
2013-02-17 22:40:00,27.6,17.4,30.06,East,90,1.0,3.0,65,0.00,,,0.00,0,WeatherCatV1.13B119,2013-02-18 06:40:00,
2013-02-17 22:45:00,27.8,17.9,30.06,East,90,1.0,4.0,66,0.00,,,0.00,0,WeatherCatV1.13B119,2013-02-18 06:45:00,
2013-02-17 22:50:00,28.1,17.9,30.06,East,90,2.0,5.0,65,0.00,,,0.00,0,WeatherCatV1.13B119,2013-02-18 06:50:00,
2013-02-17 22:55:00,28.1,17.5,30.06,East,90,2.0,5.0,64,0.00,,,0.00,0,WeatherCatV1.13B119,2013-02-18 06:55:00,
2013-02-17 23:00:00,27.9,17.0,30.06,East,90,2.0,5.0,63,0.00,,,0.00,0,WeatherCatV1.13B119,2013-02-18 07:00:00,
2013-02-17 23:05:00,27.9,17.7,30.06,ENE,68,3.0,5.0,65,0.00,,,0.00,0,WeatherCatV1.13B119,2013-02-18 07:05:00,
2013-02-17 23:10:00,27.9,17.7,30.06,East,90,0.0,2.0,65,0.00,,,0.00,0,WeatherCatV1.13B119,2013-02-18 07:10:00,
2013-02-17 23:15:00,28.1,17.9,30.06,ENE,68,1.0,3.0,65,0.00,,,0.00,0,WeatherCatV1.13B119,2013-02-18 07:15:00,
2013-02-17 23:20:00,28.2,18.0,30.02,East,90,0.0,2.0,65,0.00,,,0.00,0,WeatherCatV1.13B119,2013-02-18 07:20:00,
2013-02-17 23:25:00,28.2,18.0,30.02,East,90,1.0,3.0,65,0.00,,,0.00,0,WeatherCatV1.13B119,2013-02-18 07:25:00,
2013-02-17 23:30:00,28.1,17.9,30.02,East,90,2.0,3.0,65,0.00,,,0.00,0,WeatherCatV1.13B119,2013-02-18 07:30:00,
2013-02-17 23:35:00,28.1,17.9,30.02,ENE,68,0.0,3.0,65,0.00,,,0.00,0,WeatherCatV1.13B119,2013-02-18 07:35:00,
2013-02-17 23:40:00,28.2,18.0,30.02,ENE,68,2.0,4.0,65,0.00,,,0.00,0,WeatherCatV1.13B119,2013-02-18 07:40:00,
2013-02-17 23:45:00,28.2,18.3,30.02,ENE,68,1.0,3.0,66,0.00,,,0.00,0,WeatherCatV1.13B119,2013-02-18 07:45:00,
2013-02-17 23:50:00,28.2,18.0,30.02,ENE,68,1.0,5.0,65,0.00,,,0.00,0,WeatherCatV1.13B119,2013-02-18 07:50:00,
2013-02-17 23:55:00,28.1,18.2,30.02,ENE,68,0.0,2.0,66,0.00,,,0.00,0,WeatherCatV1.13B119,2013-02-18 07:55:00,